This demonstration page uses our WeatherBlox Daily Observations layout. Learn more.

38.88101, -77.10428

Hourly Observations for March 4, 2018

Temp ( °F °C ) Dew Point ( °F °C ) Humidity (%) Winds ( mph kmh ) Pressure ( in mb ) Visibility ( mi km ) Precip ( " mm )
12:52 am 00:52 Cloudy 40 4.4 26 -3.3 58 58 NNW 14 22 30.24 1024 10 16.0934 0 0
1:52 am 01:52 Cloudy 40 4.4 26 -3.3 58 58 NNW 16 26 30.24 1024 10 16.0934 0 0
2:52 am 02:52 Cloudy 39 3.9 25 -3.9 57 57 NNW 14 22 30.23 1024 10 16.0934 0 0
3:52 am 03:52 Cloudy 39 3.9 25 -3.9 57 57 NW 16 26 30.23 1024 10 16.0934 0 0
4:52 am 04:52 Cloudy 37 2.8 24 -4.4 59 59 NW 15 24 30.23 1024 10 16.0934 0 0
5:52 am 05:52 Mostly Cloudy 36 2.2 24 -4.4 62 62 NW 14 22 30.24 1024 10 16.0934 0 0
6:52 am 06:52 Mostly Sunny 35 1.7 24 -4.4 64 64 NW 12 19 30.25 1024 10 16.0934 0 0
7:52 am 07:52 Mostly Sunny 37 2.8 25 -3.9 62 62 NNW 12 19 30.27 1025 10 16.0934 0 0
8:52 am 08:52 Mostly Sunny 41 5 25 -3.9 53 53 NNW 16 26 30.27 1025 10 16.0934 0 0
9:52 am 09:52 Mostly Sunny 44 6.7 26 -3.3 49 49 N 17 28 30.27 1025 10 16.0934 0 0
10:52 am 10:52 Mostly Sunny 48 8.9 26 -3.3 42 42 NNW 16 26 30.26 1025 10 16.0934 0 0
11:52 am 11:52 Mostly Sunny 49 9.4 22 -5.6 35 35 N 16 26 30.24 1024 10 16.0934 0 0
12:52 pm 12:52 Mostly Sunny 51 10.6 21 -6.1 31 31 NNW 16 26 30.2 1023 10 16.0934 0 0
1:52 pm 13:52 Sunny 52 11.1 22 -5.6 31 31 NNW 20 31 30.18 1022 10 16.0934 0 0
2:52 pm 14:52 Sunny 53 11.7 18 -7.8 25 25 NW 21 33 30.16 1021 10 16.0934 0 0
3:52 pm 15:52 Sunny 51 10.6 15 -9.4 24 24 NNW 23 37 30.16 1021 10 16.0934 0 0
4:52 pm 16:52 Sunny 50 10 13 -10.6 22 22 NW 18 30 30.16 1022 10 16.0934 0 0
5:52 pm 17:52 Sunny 48 8.9 10 -12.2 21 21 NW 20 31 30.17 1022 10 16.0934 0 0
6:52 pm 18:52 Clear 46 7.8 11 -11.7 24 24 NNW 13 20 30.19 1022 10 16.0934 0 0
7:52 pm 19:52 Clear 44 6.7 13 -10.6 28 28 NNW 15 24 30.18 1022 10 16.0934 0 0
8:52 pm 20:52 Clear 43 6.1 11 -11.7 27 27 NNW 13 20 30.19 1022 10 16.0934 0 0
9:52 pm 21:52 Clear 43 6.1 9 -12.8 25 25 NNW 17 28 30.19 1023 10 16.0934 0 0
10:52 pm 22:52 Clear 41 5 10 -12.2 28 28 N 15 24 30.19 1022 10 16.0934 0 0
11:52 pm 23:52 Clear 39 3.9 10 -12.2 30 30 NNW 18 30 30.2 1023 10 16.0934 0 0

Powered by AerisWeather